N180GS BIRK-BIHN

Flight info

Callsign N180GS
Flight time 1h 16m
Altitude 3000
Route BIBA BIVI BIKL BIFM HN
Aircraft BE36/L-VGD/C

Departure

Time 2026-04-15 17:29
Airport Reykjavík Domestic Airport (BIRK)

Arrival

Time 2026-04-15 18:45
Airport Hornafjörður Airport (BIHN)
Time Latitude Longitude Altitude Speed Heading
2026-04-15 17:16 64.13076 -21.93437 41 ft 0 kts 99°
2026-04-15 17:19 64.13074 -21.93430 41 ft 2 kts 142°
2026-04-15 17:19 64.13072 -21.93482 41 ft 6 kts 290°
2026-04-15 17:19 64.13078 -21.93514 41 ft 0 kts 293°
2026-04-15 17:20 64.13079 -21.93518 41 ft 2 kts 293°
2026-04-15 17:20 64.13102 -21.93638 40 ft 13 kts 304°
2026-04-15 17:20 64.13149 -21.93895 41 ft 20 kts 282°
2026-04-15 17:21 64.13133 -21.94217 42 ft 23 kts 261°
2026-04-15 17:21 64.13122 -21.94497 42 ft 10 kts 264°
2026-04-15 17:21 64.13121 -21.94523 41 ft 0 kts 264°
2026-04-15 17:26 64.13121 -21.94524 41 ft 1 kts 264°
2026-04-15 17:26 64.13111 -21.94644 41 ft 15 kts 261°
2026-04-15 17:26 64.13125 -21.94941 37 ft 25 kts 295°
2026-04-15 17:26 64.13198 -21.95275 36 ft 22 kts 296°
2026-04-15 17:27 64.13247 -21.95517 36 ft 17 kts 294°
2026-04-15 17:27 64.13262 -21.95672 35 ft 6 kts 289°
2026-04-15 17:27 64.13271 -21.95633 35 ft 0 kts 114°
2026-04-15 17:28 64.13255 -21.95556 35 ft 22 kts 117°
2026-04-15 17:29 64.13089 -21.94766 73 ft 79 kts 116°
2026-04-15 17:29 64.12852 -21.93421 269 ft 99 kts 120°
2026-04-15 17:29 64.12508 -21.92021 581 ft 103 kts 126°
2026-04-15 17:29 64.12084 -21.90597 810 ft 115 kts 125°
2026-04-15 17:30 64.11629 -21.88983 1011 ft 124 kts 137°
2026-04-15 17:30 64.10990 -21.87607 1216 ft 127 kts 139°
2026-04-15 17:30 64.10329 -21.86132 1410 ft 137 kts 139°
2026-04-15 17:30 64.09633 -21.84590 1599 ft 141 kts 139°
2026-04-15 17:31 64.08956 -21.82933 1790 ft 146 kts 126°
2026-04-15 17:31 64.08518 -21.80841 1981 ft 150 kts 119°
2026-04-15 17:31 64.08081 -21.78677 2164 ft 150 kts 120°
2026-04-15 17:31 64.07649 -21.76512 2346 ft 149 kts 120°
2026-04-15 17:32 64.07220 -21.74371 2527 ft 147 kts 123°
2026-04-15 17:32 64.06576 -21.72662 2706 ft 141 kts 139°
2026-04-15 17:32 64.05945 -21.70948 2870 ft 141 kts 131°
2026-04-15 17:32 64.05351 -21.69132 2993 ft 146 kts 129°
2026-04-15 17:33 64.04737 -21.67189 3001 ft 155 kts 129°
2026-04-15 17:33 64.04102 -21.65144 3007 ft 160 kts 128°
2026-04-15 17:33 64.03446 -21.63026 3005 ft 165 kts 128°
2026-04-15 17:33 64.02781 -21.60877 3005 ft 166 kts 128°
2026-04-15 17:34 64.02118 -21.58733 2993 ft 163 kts 128°
2026-04-15 17:34 64.01469 -21.56646 2996 ft 160 kts 129°
2026-04-15 17:34 64.00830 -21.54593 3002 ft 161 kts 128°
2026-04-15 17:34 64.00164 -21.52460 2996 ft 167 kts 128°
2026-04-15 17:35 63.99486 -21.50281 2996 ft 170 kts 128°
2026-04-15 17:35 63.98797 -21.48076 2995 ft 172 kts 128°
2026-04-15 17:35 63.98106 -21.45852 3003 ft 172 kts 128°
2026-04-15 17:35 63.97419 -21.43652 3005 ft 173 kts 128°
2026-04-15 17:36 63.96714 -21.41402 3000 ft 175 kts 128°
2026-04-15 17:36 63.96011 -21.39156 3000 ft 174 kts 128°
2026-04-15 17:36 63.95308 -21.36914 3001 ft 174 kts 128°
2026-04-15 17:36 63.94605 -21.34672 3002 ft 174 kts 128°
2026-04-15 17:37 63.93898 -21.32423 3001 ft 175 kts 128°
2026-04-15 17:37 63.93192 -21.30174 3000 ft 175 kts 128°
2026-04-15 17:37 63.92488 -21.27933 2999 ft 174 kts 128°
2026-04-15 17:37 63.91786 -21.25708 2999 ft 173 kts 128°
2026-04-15 17:38 63.91087 -21.23494 2999 ft 172 kts 128°
2026-04-15 17:38 63.90399 -21.21310 3000 ft 172 kts 128°
2026-04-15 17:38 63.89699 -21.19098 2999 ft 172 kts 128°
2026-04-15 17:38 63.89000 -21.16888 3001 ft 173 kts 128°
2026-04-15 17:39 63.88297 -21.14665 2998 ft 174 kts 128°
2026-04-15 17:39 63.87591 -21.12434 2999 ft 174 kts 128°
2026-04-15 17:39 63.86881 -21.10197 2999 ft 175 kts 128°
2026-04-15 17:39 63.86172 -21.07963 2997 ft 174 kts 128°
2026-04-15 17:40 63.85468 -21.05747 3000 ft 173 kts 128°
2026-04-15 17:40 63.84761 -21.03528 3000 ft 173 kts 128°
2026-04-15 17:40 63.84056 -21.01312 2999 ft 173 kts 128°
2026-04-15 17:40 63.83350 -20.99101 2997 ft 173 kts 128°
2026-04-15 17:41 63.82642 -20.96881 3001 ft 174 kts 128°
2026-04-15 17:41 63.81933 -20.94657 3001 ft 174 kts 128°
2026-04-15 17:41 63.81222 -20.92430 3002 ft 175 kts 128°
2026-04-15 17:41 63.80508 -20.90197 3001 ft 175 kts 128°
2026-04-15 17:42 63.79802 -20.88001 3005 ft 174 kts 128°
2026-04-15 17:42 63.79090 -20.85777 3005 ft 175 kts 128°
2026-04-15 17:42 63.78377 -20.83555 3004 ft 174 kts 128°
2026-04-15 17:42 63.77668 -20.81347 3003 ft 173 kts 128°
2026-04-15 17:43 63.76962 -20.79151 2998 ft 173 kts 128°
2026-04-15 17:43 63.76255 -20.76957 2998 ft 173 kts 128°
2026-04-15 17:43 63.75548 -20.74763 2997 ft 172 kts 128°
2026-04-15 17:43 63.74843 -20.72576 2997 ft 172 kts 128°
2026-04-15 17:44 63.74134 -20.70381 2997 ft 172 kts 128°
2026-04-15 17:44 63.73427 -20.68195 2997 ft 172 kts 128°
2026-04-15 17:44 63.72720 -20.66006 2997 ft 172 kts 128°
2026-04-15 17:44 63.72021 -20.63849 2998 ft 172 kts 128°
2026-04-15 17:45 63.71313 -20.61660 3003 ft 172 kts 128°
2026-04-15 17:45 63.70605 -20.59480 3003 ft 172 kts 128°
2026-04-15 17:45 63.69896 -20.57294 3002 ft 172 kts 128°
2026-04-15 17:45 63.69189 -20.55124 3001 ft 172 kts 128°
2026-04-15 17:46 63.68483 -20.52952 2999 ft 172 kts 128°
2026-04-15 17:46 63.67775 -20.50781 2987 ft 172 kts 127°
2026-04-15 17:46 63.67072 -20.48619 2990 ft 171 kts 127°
2026-04-15 17:46 63.66368 -20.46464 2990 ft 171 kts 127°
2026-04-15 17:47 63.65663 -20.44304 2991 ft 171 kts 127°
2026-04-15 17:47 63.64968 -20.42175 2990 ft 171 kts 127°
2026-04-15 17:47 63.64265 -20.40025 2992 ft 170 kts 127°
2026-04-15 17:47 63.63561 -20.37880 2992 ft 170 kts 127°
2026-04-15 17:48 63.62858 -20.35734 2995 ft 170 kts 127°
2026-04-15 17:48 63.62154 -20.33589 2996 ft 171 kts 127°
2026-04-15 17:48 63.61447 -20.31440 2996 ft 171 kts 127°
2026-04-15 17:48 63.60742 -20.29292 2994 ft 171 kts 127°
2026-04-15 17:49 63.60038 -20.27150 2996 ft 170 kts 127°
2026-04-15 17:49 63.59335 -20.25018 2996 ft 170 kts 127°
2026-04-15 17:49 63.58640 -20.22907 2994 ft 170 kts 127°
2026-04-15 17:49 63.57935 -20.20774 2994 ft 170 kts 127°
2026-04-15 17:50 63.57233 -20.18648 2992 ft 170 kts 127°
2026-04-15 17:50 63.56528 -20.16515 2999 ft 170 kts 127°
2026-04-15 17:50 63.55824 -20.14375 3002 ft 171 kts 124°
2026-04-15 17:50 63.55411 -20.11873 2995 ft 173 kts 102°
2026-04-15 17:51 63.55151 -20.09223 2997 ft 174 kts 104°
2026-04-15 17:51 63.54875 -20.06569 2998 ft 175 kts 104°
2026-04-15 17:51 63.54597 -20.03901 2997 ft 174 kts 104°
2026-04-15 17:51 63.54327 -20.01290 2997 ft 174 kts 104°
2026-04-15 17:52 63.54052 -19.98653 3001 ft 173 kts 104°
2026-04-15 17:52 63.53779 -19.96013 3002 ft 174 kts 104°
2026-04-15 17:52 63.53501 -19.93370 3003 ft 175 kts 104°
2026-04-15 17:52 63.53225 -19.90714 3001 ft 175 kts 104°
2026-04-15 17:53 63.52947 -19.88065 3000 ft 174 kts 104°
2026-04-15 17:53 63.52670 -19.85415 3000 ft 175 kts 104°
2026-04-15 17:53 63.52391 -19.82759 3000 ft 175 kts 104°
2026-04-15 17:53 63.52112 -19.80107 3000 ft 175 kts 104°
2026-04-15 17:54 63.51832 -19.77457 2998 ft 175 kts 104°
2026-04-15 17:54 63.51552 -19.74810 2998 ft 175 kts 104°
2026-04-15 17:54 63.51276 -19.72196 2998 ft 174 kts 105°
2026-04-15 17:54 63.50996 -19.69558 3003 ft 174 kts 104°
2026-04-15 17:55 63.50715 -19.66918 3007 ft 174 kts 104°
2026-04-15 17:55 63.50434 -19.64275 3006 ft 174 kts 104°
2026-04-15 17:55 63.50152 -19.61635 3006 ft 174 kts 104°
2026-04-15 17:55 63.49870 -19.59000 3009 ft 174 kts 104°
2026-04-15 17:56 63.49587 -19.56353 3011 ft 176 kts 104°
2026-04-15 17:56 63.49301 -19.53693 3014 ft 176 kts 104°
2026-04-15 17:56 63.49015 -19.51028 3001 ft 175 kts 104°
2026-04-15 17:56 63.48729 -19.48382 3001 ft 175 kts 104°
2026-04-15 17:57 63.48442 -19.45717 3001 ft 176 kts 104°
2026-04-15 17:57 63.48154 -19.43056 3001 ft 176 kts 104°
2026-04-15 17:57 63.47866 -19.40396 3002 ft 176 kts 104°
2026-04-15 17:57 63.47577 -19.37735 3002 ft 176 kts 104°
2026-04-15 17:58 63.47287 -19.35074 3002 ft 176 kts 104°
2026-04-15 17:58 63.46997 -19.32414 3009 ft 176 kts 104°
2026-04-15 17:58 63.46711 -19.29790 3007 ft 175 kts 104°
2026-04-15 17:58 63.46421 -19.27144 3012 ft 175 kts 104°
2026-04-15 17:59 63.46132 -19.24501 3011 ft 175 kts 104°
2026-04-15 17:59 63.45840 -19.21849 3011 ft 175 kts 104°
2026-04-15 17:59 63.45550 -19.19206 3010 ft 175 kts 104°
2026-04-15 17:59 63.45259 -19.16570 3009 ft 175 kts 104°
2026-04-15 18:00 63.44967 -19.13934 3009 ft 175 kts 104°
2026-04-15 18:00 63.44675 -19.11285 3008 ft 176 kts 104°
2026-04-15 18:00 63.44384 -19.08663 3007 ft 175 kts 104°
2026-04-15 18:00 63.44092 -19.06029 3007 ft 174 kts 104°
2026-04-15 18:01 63.43800 -19.03418 3013 ft 173 kts 104°
2026-04-15 18:01 63.43509 -19.00795 3012 ft 175 kts 104°
2026-04-15 18:01 63.43212 -18.98138 3018 ft 177 kts 104°
2026-04-15 18:01 63.42914 -18.95471 3019 ft 177 kts 104°
2026-04-15 18:02 63.42616 -18.92805 3019 ft 177 kts 104°
2026-04-15 18:02 63.42466 -18.90082 3015 ft 178 kts 85°
2026-04-15 18:02 63.42849 -18.87467 3012 ft 179 kts 62°
2026-04-15 18:02 63.43646 -18.85371 3010 ft 180 kts 47°
2026-04-15 18:03 63.44513 -18.83360 3012 ft 179 kts 49°
2026-04-15 18:03 63.45373 -18.81343 3012 ft 179 kts 48°
2026-04-15 18:03 63.46232 -18.79330 3012 ft 179 kts 48°
2026-04-15 18:03 63.47091 -18.77315 3012 ft 179 kts 48°
2026-04-15 18:04 63.47953 -18.75289 3012 ft 179 kts 49°
2026-04-15 18:04 63.48814 -18.73266 3012 ft 180 kts 48°
2026-04-15 18:04 63.49675 -18.71240 3006 ft 180 kts 48°
2026-04-15 18:04 63.50538 -18.69206 3005 ft 181 kts 47°
2026-04-15 18:05 63.51395 -18.67185 3005 ft 181 kts 47°
2026-04-15 18:05 63.52266 -18.65132 3014 ft 182 kts 47°
2026-04-15 18:05 63.53137 -18.63072 3014 ft 182 kts 47°
2026-04-15 18:05 63.54011 -18.61008 3014 ft 182 kts 47°
2026-04-15 18:06 63.54882 -18.58946 3012 ft 182 kts 47°
2026-04-15 18:06 63.55754 -18.56880 3013 ft 182 kts 47°
2026-04-15 18:06 63.56626 -18.54813 3013 ft 182 kts 47°
2026-04-15 18:06 63.57498 -18.52742 3013 ft 182 kts 47°
2026-04-15 18:07 63.58370 -18.50672 3016 ft 182 kts 47°
2026-04-15 18:07 63.59240 -18.48605 3016 ft 182 kts 48°
2026-04-15 18:07 63.60110 -18.46532 3013 ft 182 kts 47°
2026-04-15 18:07 63.60981 -18.44458 3013 ft 182 kts 47°
2026-04-15 18:08 63.61852 -18.42380 3014 ft 182 kts 47°
2026-04-15 18:08 63.62723 -18.40302 3013 ft 183 kts 48°
2026-04-15 18:08 63.63584 -18.38246 3014 ft 183 kts 48°
2026-04-15 18:08 63.64455 -18.36161 3013 ft 182 kts 47°
2026-04-15 18:09 63.65325 -18.34078 3011 ft 183 kts 48°
2026-04-15 18:09 63.66196 -18.31993 3011 ft 183 kts 48°
2026-04-15 18:09 63.67066 -18.29905 3011 ft 183 kts 47°
2026-04-15 18:09 63.67935 -18.27819 3011 ft 182 kts 48°
2026-04-15 18:10 63.68802 -18.25734 3017 ft 183 kts 48°
2026-04-15 18:10 63.69673 -18.23640 3017 ft 183 kts 48°
2026-04-15 18:10 63.70543 -18.21546 3020 ft 183 kts 48°
2026-04-15 18:10 63.71412 -18.19452 3019 ft 182 kts 48°
2026-04-15 18:11 63.72277 -18.17364 3019 ft 182 kts 48°
2026-04-15 18:11 63.73142 -18.15276 3019 ft 182 kts 48°
2026-04-15 18:11 63.74008 -18.13182 3019 ft 182 kts 48°
2026-04-15 18:11 63.74873 -18.11091 3013 ft 182 kts 48°
2026-04-15 18:12 63.75738 -18.08995 3016 ft 182 kts 47°
2026-04-15 18:12 63.76309 -18.07611 3016 ft 182 kts 47°
2026-04-15 18:12 63.77171 -18.05522 3016 ft 182 kts 48°
2026-04-15 18:12 63.78311 -18.02752 3016 ft 181 kts 48°
2026-04-15 18:13 63.79104 -18.00550 3010 ft 181 kts 62°
2026-04-15 18:13 63.79456 -17.97843 3016 ft 180 kts 82°
2026-04-15 18:13 63.79571 -17.95948 3018 ft 180 kts 82°
2026-04-15 18:14 63.79929 -17.90373 3013 ft 180 kts 82°
2026-04-15 18:14 63.80108 -17.87569 3013 ft 180 kts 82°
2026-04-15 18:14 63.80289 -17.84759 3014 ft 180 kts 82°
2026-04-15 18:14 63.80468 -17.81951 3014 ft 180 kts 82°
2026-04-15 18:15 63.80647 -17.79142 3016 ft 180 kts 82°
2026-04-15 18:15 63.80825 -17.76336 3016 ft 180 kts 82°
2026-04-15 18:15 63.81001 -17.73531 3016 ft 180 kts 82°
2026-04-15 18:15 63.81178 -17.70727 3016 ft 180 kts 82°
2026-04-15 18:16 63.81354 -17.67922 3017 ft 180 kts 82°
2026-04-15 18:16 63.81530 -17.65118 3017 ft 180 kts 82°
2026-04-15 18:16 63.81705 -17.62309 3017 ft 180 kts 82°
2026-04-15 18:16 63.81880 -17.59500 3018 ft 180 kts 82°
2026-04-15 18:17 63.82054 -17.56690 3017 ft 180 kts 82°
2026-04-15 18:17 63.82228 -17.53883 3017 ft 180 kts 82°
2026-04-15 18:17 63.82398 -17.51108 3017 ft 180 kts 82°
2026-04-15 18:17 63.82570 -17.48303 3017 ft 180 kts 82°
2026-04-15 18:18 63.82743 -17.45494 3020 ft 180 kts 82°
2026-04-15 18:18 63.82913 -17.42689 3020 ft 180 kts 82°
2026-04-15 18:18 63.83084 -17.39875 3019 ft 180 kts 82°
2026-04-15 18:18 63.83255 -17.37060 3020 ft 180 kts 82°
2026-04-15 18:19 63.83425 -17.34252 3015 ft 178 kts 82°
2026-04-15 18:19 63.83591 -17.31492 3016 ft 176 kts 83°
2026-04-15 18:19 63.83756 -17.28738 3015 ft 177 kts 83°
2026-04-15 18:19 63.83921 -17.25964 3014 ft 177 kts 83°
2026-04-15 18:20 63.84086 -17.23198 3016 ft 177 kts 83°
2026-04-15 18:20 63.84248 -17.20480 3015 ft 176 kts 83°
2026-04-15 18:20 63.84411 -17.17715 3013 ft 176 kts 83°
2026-04-15 18:20 63.84573 -17.14978 3013 ft 175 kts 83°
2026-04-15 18:21 63.84734 -17.12239 3013 ft 175 kts 83°
2026-04-15 18:21 63.84894 -17.09506 3014 ft 175 kts 83°
2026-04-15 18:21 63.85054 -17.06762 3014 ft 176 kts 83°
2026-04-15 18:21 63.85213 -17.04011 3015 ft 176 kts 83°
2026-04-15 18:22 63.85374 -17.01254 3016 ft 176 kts 83°
2026-04-15 18:22 63.85533 -16.98500 3016 ft 176 kts 83°
2026-04-15 18:22 63.85690 -16.95791 3015 ft 175 kts 83°
2026-04-15 18:22 63.85846 -16.93055 3016 ft 175 kts 83°
2026-04-15 18:23 63.86003 -16.90304 3017 ft 176 kts 83°
2026-04-15 18:23 63.86161 -16.87547 3018 ft 176 kts 83°
2026-04-15 18:23 63.86318 -16.84797 3018 ft 176 kts 83°
2026-04-15 18:23 63.86473 -16.82046 3017 ft 176 kts 83°
2026-04-15 18:24 63.86629 -16.79291 3017 ft 176 kts 83°
2026-04-15 18:24 63.86783 -16.76546 3017 ft 176 kts 83°
2026-04-15 18:24 63.86938 -16.73795 3018 ft 175 kts 83°
2026-04-15 18:24 63.87090 -16.71058 3018 ft 175 kts 83°
2026-04-15 18:25 63.87241 -16.68351 3017 ft 176 kts 83°
2026-04-15 18:25 63.87394 -16.65586 3018 ft 177 kts 83°
2026-04-15 18:25 63.87790 -16.62968 3015 ft 178 kts 59°
2026-04-15 18:25 63.88472 -16.60635 3018 ft 177 kts 58°
2026-04-15 18:26 63.89142 -16.58273 3017 ft 178 kts 58°
2026-04-15 18:26 63.89810 -16.55915 3016 ft 177 kts 58°
2026-04-15 18:26 63.90478 -16.53562 3019 ft 176 kts 58°
2026-04-15 18:26 63.91144 -16.51216 3018 ft 177 kts 58°
2026-04-15 18:27 63.91810 -16.48861 3017 ft 178 kts 58°
2026-04-15 18:27 63.92478 -16.46502 3017 ft 177 kts 58°
2026-04-15 18:27 63.93145 -16.44146 3019 ft 177 kts 58°
2026-04-15 18:27 63.93810 -16.41789 3019 ft 177 kts 58°
2026-04-15 18:28 63.94478 -16.39421 3015 ft 178 kts 59°
2026-04-15 18:28 63.95148 -16.37049 3014 ft 177 kts 58°
2026-04-15 18:28 63.95802 -16.34723 3015 ft 177 kts 58°
2026-04-15 18:28 63.96464 -16.32367 3015 ft 177 kts 58°
2026-04-15 18:29 63.97127 -16.30008 3016 ft 177 kts 58°
2026-04-15 18:29 63.97793 -16.27637 3016 ft 177 kts 59°
2026-04-15 18:29 63.98457 -16.25267 3016 ft 177 kts 58°
2026-04-15 18:29 63.99122 -16.22894 3014 ft 177 kts 59°
2026-04-15 18:30 63.99784 -16.20525 3015 ft 177 kts 59°
2026-04-15 18:30 64.00444 -16.18167 3015 ft 176 kts 59°
2026-04-15 18:30 64.01103 -16.15805 3017 ft 176 kts 58°
2026-04-15 18:30 64.01763 -16.13436 3018 ft 177 kts 59°
2026-04-15 18:31 64.02424 -16.11065 3021 ft 177 kts 59°
2026-04-15 18:31 64.03076 -16.08724 3021 ft 177 kts 59°
2026-04-15 18:31 64.03735 -16.06352 3020 ft 177 kts 58°
2026-04-15 18:31 64.04396 -16.03974 3022 ft 177 kts 59°
2026-04-15 18:32 64.05056 -16.01597 3022 ft 177 kts 59°
2026-04-15 18:32 64.05716 -15.99214 3021 ft 177 kts 59°
2026-04-15 18:32 64.06375 -15.96831 3020 ft 177 kts 59°
2026-04-15 18:32 64.07032 -15.94457 3025 ft 177 kts 59°
2026-04-15 18:33 64.07689 -15.92077 2951 ft 176 kts 58°
2026-04-15 18:33 64.08346 -15.89693 3014 ft 177 kts 57°
2026-04-15 18:33 64.08997 -15.87334 3013 ft 178 kts 57°
2026-04-15 18:33 64.09658 -15.84936 3012 ft 178 kts 57°
2026-04-15 18:34 64.10317 -15.82540 3011 ft 178 kts 57°
2026-04-15 18:34 64.10976 -15.80143 3009 ft 178 kts 58°
2026-04-15 18:34 64.11635 -15.77740 3009 ft 178 kts 58°
2026-04-15 18:34 64.12292 -15.75345 3010 ft 178 kts 58°
2026-04-15 18:35 64.12947 -15.72951 3010 ft 177 kts 58°
2026-04-15 18:35 64.13602 -15.70561 3010 ft 177 kts 57°
2026-04-15 18:35 64.14255 -15.68171 3009 ft 177 kts 57°
2026-04-15 18:35 64.14907 -15.65780 3008 ft 177 kts 58°
2026-04-15 18:36 64.15559 -15.63390 3006 ft 177 kts 58°
2026-04-15 18:36 64.16202 -15.61029 3005 ft 177 kts 57°
2026-04-15 18:36 64.16855 -15.58630 3003 ft 177 kts 58°
2026-04-15 18:36 64.17507 -15.56234 3002 ft 176 kts 57°
2026-04-15 18:37 64.18154 -15.53848 3001 ft 176 kts 58°
2026-04-15 18:37 64.18802 -15.51460 3001 ft 176 kts 58°
2026-04-15 18:37 64.19451 -15.49068 3000 ft 176 kts 58°
2026-04-15 18:37 64.20098 -15.46677 2999 ft 176 kts 58°
2026-04-15 18:38 64.20746 -15.44281 3000 ft 177 kts 58°
2026-04-15 18:38 64.21394 -15.41881 2999 ft 177 kts 58°
2026-04-15 18:38 64.22043 -15.39476 2934 ft 176 kts 58°
2026-04-15 18:38 64.22682 -15.37092 2731 ft 174 kts 58°
2026-04-15 18:39 64.23307 -15.34757 2467 ft 168 kts 58°
2026-04-15 18:39 64.23905 -15.32516 2200 ft 162 kts 60°
2026-04-15 18:39 64.24183 -15.30075 1939 ft 160 kts 81°
2026-04-15 18:39 64.24331 -15.27551 1675 ft 158 kts 81°
2026-04-15 18:40 64.24475 -15.25078 1415 ft 152 kts 81°
2026-04-15 18:40 64.24605 -15.22722 1141 ft 145 kts 81°
2026-04-15 18:40 64.24736 -15.20489 997 ft 132 kts 72°
2026-04-15 18:40 64.25293 -15.19160 992 ft 114 kts 14°
2026-04-15 18:41 64.26043 -15.19444 988 ft 106 kts 348°
2026-04-15 18:41 64.26723 -15.19983 988 ft 108 kts 325°
2026-04-15 18:41 64.26937 -15.21669 993 ft 123 kts 263°
2026-04-15 18:41 64.26773 -15.23643 1003 ft 127 kts 263°
2026-04-15 18:42 64.26437 -15.25479 1000 ft 127 kts 221°
2026-04-15 18:42 64.25625 -15.25898 997 ft 124 kts 169°
2026-04-15 18:42 64.24779 -15.25632 998 ft 122 kts 171°
2026-04-15 18:42 64.23966 -15.25189 993 ft 119 kts 142°
2026-04-15 18:43 64.23663 -15.23589 992 ft 111 kts 82°
2026-04-15 18:43 64.24089 -15.22257 991 ft 108 kts 19°
2026-04-15 18:43 64.24804 -15.21883 935 ft 103 kts 12°
2026-04-15 18:43 64.25505 -15.21676 727 ft 98 kts
2026-04-15 18:44 64.26169 -15.21577 550 ft 88 kts
2026-04-15 18:44 64.26744 -15.21593 424 ft 78 kts 359°
2026-04-15 18:44 64.27285 -15.21715 353 ft 78 kts 356°
2026-04-15 18:44 64.27829 -15.21928 262 ft 81 kts 354°
2026-04-15 18:45 64.28391 -15.22171 163 ft 82 kts 354°
2026-04-15 18:45 64.28952 -15.22421 32 ft 80 kts 353°
2026-04-15 18:45 64.29434 -15.22665 11 ft 60 kts 348°
2026-04-15 18:45 64.29771 -15.22838 11 ft 41 kts 347°
2026-04-15 18:46 64.30012 -15.22967 12 ft 31 kts 346°
2026-04-15 18:46 64.30172 -15.23051 16 ft 11 kts 350°
2026-04-15 18:46 64.30206 -15.22957 17 ft 8 kts 78°
2026-04-15 18:46 64.30217 -15.22854 17 ft 2 kts 77°
2026-04-15 18:47 64.30217 -15.22852 17 ft 0 kts 77°
2026-04-15 18:47 64.30226 -15.22765 17 ft 10 kts 67°
2026-04-15 18:47 64.30271 -15.22761 17 ft 7 kts 267°
2026-04-15 18:48 64.30245 -15.22783 17 ft 0 kts 166°
2026-04-15 18:48 64.30244 -15.22782 17 ft 0 kts 167°